Find Starlink 5951

NORAD ID: 56918 Int'l Des: 2023-083 Owner: SPXS Country: US Constellation: starlink operational
LEOCIRCULAR

リアルタイム位置

3D地球を読み込み中...

Starlink 5951について

説明を読み込み中...

次回通過

Passes for default location (London). Set your location on the main map for personalized predictions.

高度履歴

Loading altitude history...

軌道要素

1 56918U 23083AU 26105.05480365 .00002535 00000-0 10408-3 0 9991
2 56918 43.0028 224.9679 0001354 271.7284 88.3412 15.26761624157369
Epoch: Apr 15, 2026 • Age: 42 hours

現在のステータス

高度 485.3 km
速度 7.62 km/s
衛星直下点 1.34°N, 94.88°W
打ち上げ日 Jun 12, 2023
運用期間 2.8 years
タイプ internet

技術仕様

分類 Payload
質量 305.00 kg
乾燥質量 290.00 kg
総質量 305.00 kg
長さ 0.20 m
直径 2.80 m
スパン 9.00 m
形状 Box + pan
製造者 SPXS
バスタイプ Starlink
フェーズステータス In Orbit
所有者/国 SPXS/US

Most Searched